Content
SEND FEEDBACK

Daily
Averages
Monthly
Summary
France

LYON, FRANCE


Home > Europe > France
Elevation: 659 feet     Latitude: 45 43N     Longitude: 004 57E

WEATHER
 
SELECT A DAY
Number of Records: 153,919;   Date Range: 7/1/96 - 8/10/14
 
SHARE

PRINT THIS DATA

[ ← Previous Day ]
WEATHER ALMANAC - APRIL 3, 2013
[ Next Day → ]
[ °C ]   °F
Weather ElementAverageHighLow
Temperature47.1 °F55.4 °F (3:30 pm)39.2 °F (8:00 am)
Dewpoint30.5 °F33.8 °F (11:00 pm)28.4 °F (2:00 am)
Humidity53.5 %70 % (8:00 am)38 % (4:00 pm)
Barometer29.72 in29.77 in (4:00 am)29.65 in (6:30 pm)
Wind Speed4.5 mph11.5 mph (12:30 am)
Weather ElementAverage
Visibility5.9 mi
Wind DirectionESE (104 °)

Weather ElementTotal
Precipitation---
Heating Degree Days17.7 (Base 65)
Averaged from 43 records on April 3, 2013
WEATHER CONDITIONS BREAKOUT
WIND DIRECTION BREAKOUT
WEATHER BY HOUR - APRIL 3, 2013
[ °C ]   °F
Local TimeTemperatureDewpointHumidityBarometerVisibilityWind DirectionWind SpeedGust SpeedPrecipitationEventsConditions
12:30 AM48.2 °F30.2 °F50 %29.71 in6.2 miNW (310°)11.5 mph
1:00 AM48.2 °F30.2 °F50 %29.71 in6.2 miWNW (300°)10.4 mph
1:30 AM46.4 °F30.2 °F53 %29.74 in6.2 miWNW (290°)11.5 mph
2:00 AM44.6 °F28.4 °F53 %29.74 in6.2 miNW (310°)8.1 mph
2:30 AM44.6 °F28.4 °F53 %29.74 in6.2 miWNW (290°)5.8 mph
3:00 AM44.6 °F28.4 °F53 %29.74 in6.2 miWNW (290°)2.3 mph
3:30 AM42.8 °F28.4 °F57 %29.74 in6.2 miVariable1.2 mph
4:00 AM44.6 °F28.4 °F53 %29.77 in6.2 miWNW (300°)5.8 mph
4:30 AM44.6 °F28.4 °F53 %29.77 in6.2 miWNW (300°)3.5 mph
5:00 AM42.8 °F30.2 °F61 %29.77 in6.2 miNW (310°)4.6 mph
5:30 AM44.6 °F28.4 °F53 %29.74 in6.2 miNW (320°)4.6 mph
6:00 AM42.8 °F30.2 °F61 %29.74 in6.2 miVariable3.5 mph
6:30 AM41.0 °F30.2 °F65 %29.74 in6.2 miNNE (30°)2.3 mph
7:00 AM41.0 °F30.2 °F65 %29.74 in6.2 miNNE (20°)2.3 mph
7:30 AM41.0 °F30.2 °F65 %29.74 in6.2 miNE (40°)3.5 mph
8:00 AM39.2 °F30.2 °F70 %29.77 in5.6 miVariable3.5 mphScattered Clouds
8:30 AM41.0 °F32.0 °F70 %29.77 in5.0 miNorth (10°)4.6 mphMostly Cloudy
9:00 AM42.8 °F32.0 °F66 %29.77 in5.0 miNorth (10°)5.8 mphOvercast
9:30 AM42.8 °F32.0 °F66 %29.77 in5.0 miNNE (20°)4.6 mphMostly Cloudy
10:00 AM44.6 °F32.0 °F61 %29.77 in5.0 miNNE (20°)4.6 mphMostly Cloudy
10:30 AM44.6 °F32.0 °F61 %29.74 in5.0 miNNE (20°)6.9 mphPartly Cloudy
11:00 AM46.4 °F32.0 °F57 %29.77 in5.0 miVariable3.5 mph
11:30 AM48.2 °F32.0 °F54 %29.77 in5.6 miNorth (10°)4.6 mph
12:00 PM50.0 °F30.2 °F47 %29.74 in5.6 miNorth (10°)5.8 mph
12:30 PM50.0 °F32.0 °F50 %29.74 in5.6 miNNE (20°)6.9 mph
1:00 PM51.8 °F30.2 °F44 %29.74 in6.2 miNorth (10°)4.6 mph
1:30 PM51.8 °F30.2 °F44 %29.74 in6.2 miNorth (360°)5.8 mph
2:00 PM53.6 °F32.0 °F44 %29.71 in6.2 miVariable3.5 mph
2:30 PM53.6 °F30.2 °F41 %29.71 in5.6 miNNE (20°)4.6 mph
3:00 PM53.6 °F30.2 °F41 %29.71 in6.2 miNE (40°)3.5 mph
3:30 PM55.4 °F32.0 °F41 %29.71 in5.6 miVariable3.5 mph
4:00 PM55.4 °F30.2 °F38 %29.71 in6.2 miNE (40°)5.8 mph
6:30 PM55.4 °F30.2 °F38 %29.65 in6.2 miNorth (360°)6.9 mph
7:00 PM53.6 °F28.4 °F38 %29.65 in6.2 miNorth (10°)5.8 mph
7:30 PM53.6 °F28.4 °F38 %29.65 in6.2 miNorth (10°)4.6 mph
8:00 PM51.8 °F30.2 °F44 %29.65 in6.2 miNorth (10°)3.5 mph
8:30 PM50.0 °F28.4 °F43 %29.65 in6.2 miNorth (360°)4.6 mph
9:00 PM50.0 °F30.2 °F47 %29.68 in6.2 miNorth (10°)2.3 mph
9:30 PM46.4 °F32.0 °F57 %29.68 in6.2 miCalm
10:00 PM44.6 °F32.0 °F61 %29.68 in6.2 miCalm
10:30 PM44.6 °F32.0 °F61 %29.68 in6.2 miNorth (10°)1.2 mph
11:00 PM44.6 °F33.8 °F66 %29.65 in5.0 miCalm
11:30 PM44.6 °F33.8 °F66 %29.65 in5.0 miCalm
Hourly data recorded from LFLY, located miles away from Lyon, France







STORIES FROM OUR PARTNERS